Weather History for Windom, MN

Change the Weather History Date:

Sunday, February 12, 2012

  Actual Average Record
Temperature  
Mean Temperature 15 °F -  
Max Temperature 30 °F 26 °F 56 °F (1987)
Min Temperature 0 °F 7 °F -24 °F (1988)
Degree Days  
Heating Degree Days 50    
Moisture  
Dew Point -3 °F    
Average Humidity 54    
Maximum Humidity 78    
Minimum Humidity 27    
Precipitation  
Precipitation 0.00 in - - ()
Sea Level Pressure  
Sea Level Pressure 30.33 in    
Wind  
Wind Speed 8 mph (SW)    
Max Wind Speed 20 mph    
Max Gust Speed 23 mph    
Visibility 10 miles    
Events      
Averages and records for this station are not official NWS values.
T = Trace of Precipitation, MM = Missing Value Source: NWS Daily Summary

Daily Weather History Graph

Daily Weather History Graph

Search for Another Location

Airport:

Trip Planner

Search our weather history database for the weather conditions in past years. The results will help you decide how hot, cold, wet, or windy it might be!

Date:

Astronomy

Feb. 12, 2012 Rise Set
Actual Time 7:24 AM CST 5:45 PM CST
Civil Twilight 6:54 AM CST 6:15 PM CST
Nautical Twilight 6:20 AM CST 6:49 PM CST
Astronomical Twilight 5:47 AM CST 7:22 PM CST
Moon No Moon Rise 9:29 AM CST (2/12)
Length of Visible Light 11h 20m
Length of Day
10h 21m
Waning Gibbous, 72% of the Moon is Illuminated
Feb 12
Waning Gibbous
Feb 14
Last Quarter
Feb 21
New
Feb 29
First Quarter
Mar 8
Full

Hourly Weather History & Observations

Time (CST) Temp. Windchill Dew Point Humidity Pressure Visibility Wind Dir Wind Speed Gust Speed Precip Events Conditions
12:12 AM 3.2 °F -7.8 °F -5.8 °F 66% 30.48 in 10.0 mi West 5.8 mph - N/A   Clear
12:32 AM 1.4 °F -11.3 °F -5.8 °F 72% 30.47 in 10.0 mi West 6.9 mph - N/A   Clear
12:52 AM 1.4 °F -9.9 °F -5.8 °F 72% 30.46 in 10.0 mi WSW 5.8 mph - N/A   Clear
1:12 AM 1.4 °F -8.3 °F -5.8 °F 72% 30.47 in 10.0 mi West 4.6 mph - N/A   Clear
1:33 AM 1.4 °F -9.9 °F -5.8 °F 72% 30.47 in 10.0 mi WSW 5.8 mph - N/A   Clear
1:41 AM 1.4 °F -9.9 °F -5.8 °F 72% 30.46 in 10.0 mi West 5.8 mph - N/A   Clear
2:12 AM 1.4 °F -9.9 °F -5.8 °F 72% 30.46 in 10.0 mi West 5.8 mph - N/A   Clear
2:33 AM 1.4 °F -9.9 °F -5.8 °F 72% 30.46 in - WSW 5.8 mph - N/A   Clear
2:52 AM 1.4 °F -9.9 °F -5.8 °F 72% 30.46 in 10.0 mi WSW 5.8 mph - N/A   Clear
3:12 AM -0.4 °F -12.0 °F -7.6 °F 72% 30.45 in 10.0 mi West 5.8 mph - N/A   Clear
3:27 AM -0.4 °F -12.0 °F -7.6 °F 72% 30.45 in 10.0 mi WSW 5.8 mph - N/A   Clear
3:50 AM -0.4 °F -10.4 °F -7.6 °F 72% 30.44 in 10.0 mi West 4.6 mph - N/A   Clear
4:12 AM -0.4 °F -13.4 °F -5.8 °F 78% 30.43 in 10.0 mi WSW 6.9 mph - N/A   Clear
4:33 AM -0.4 °F -12.0 °F -7.6 °F 72% 30.44 in 10.0 mi WSW 5.8 mph - N/A   Clear
4:52 AM 1.4 °F -8.3 °F -5.8 °F 72% 30.43 in 10.0 mi WSW 4.6 mph - N/A   Clear
5:12 AM -0.4 °F -12.0 °F -7.6 °F 72% 30.43 in 10.0 mi SW 5.8 mph - N/A   Clear
5:33 AM -0.4 °F -10.4 °F -7.6 °F 72% 30.43 in 10.0 mi SW 4.6 mph - N/A   Clear
5:47 AM 1.4 °F -6.2 °F -5.8 °F 72% 30.42 in 10.0 mi SW 3.5 mph - N/A   Clear
6:12 AM -0.4 °F -8.3 °F -7.6 °F 72% 30.42 in 10.0 mi SW 3.5 mph - N/A   Clear
6:33 AM 1.4 °F - -7.6 °F 66% 30.41 in 10.0 mi Calm Calm - N/A   Clear
6:52 AM -0.4 °F - -7.6 °F 72% 30.40 in 10.0 mi Calm Calm - N/A   Clear
7:12 AM -0.4 °F - -7.6 °F 72% 30.39 in 10.0 mi Calm Calm - N/A   Clear
7:27 AM -0.4 °F -10.4 °F -7.6 °F 72% 30.38 in 10.0 mi SSW 4.6 mph - N/A   Clear
7:53 AM -0.4 °F - -5.8 °F 78% 30.37 in 10.0 mi Calm Calm - N/A   Clear
8:12 AM 3.2 °F -4.2 °F -4.0 °F 72% 30.37 in 10.0 mi South 3.5 mph - N/A   Clear
8:32 AM 5.0 °F -8.1 °F -2.2 °F 72% 30.37 in 10.0 mi South 8.1 mph - N/A   Clear
8:53 AM 6.8 °F -5.9 °F -0.4 °F 72% 30.36 in 10.0 mi SSW 8.1 mph - N/A   Clear
9:12 AM 10.4 °F -1.5 °F 1.4 °F 67% 30.36 in 10.0 mi SSW 8.1 mph - N/A   Clear
9:32 AM 12.2 °F 0.7 °F 1.4 °F 62% 30.35 in 10.0 mi SW 8.1 mph - N/A   Clear
9:53 AM 15.8 °F 5.1 °F 3.2 °F 58% 30.34 in 10.0 mi SSW 8.1 mph - N/A   Clear
10:12 AM 15.8 °F 4.2 °F 1.4 °F 53% 30.34 in 10.0 mi SSW 9.2 mph - N/A   Clear
10:32 AM 17.6 °F 4.3 °F 3.2 °F 53% 30.33 in 10.0 mi SSW 12.7 mph - N/A   Clear
10:53 AM 19.4 °F 6.6 °F 3.2 °F 49% 30.32 in 10.0 mi SSW 12.7 mph - N/A   Clear
11:12 AM 21.2 °F 7.8 °F 1.4 °F 42% 30.32 in 10.0 mi SW 15.0 mph - N/A   Clear
11:33 AM 24.8 °F 11.5 °F 1.4 °F 36% 30.31 in 10.0 mi SW 17.3 mph - N/A   Clear
11:53 AM 24.8 °F 13.4 °F 1.4 °F 36% 30.30 in 10.0 mi SSW 12.7 mph - N/A   Clear
12:12 PM 26.6 °F 14.7 °F 1.4 °F 34% 30.28 in 10.0 mi SSW 15.0 mph - N/A   Clear
12:32 PM 26.6 °F 13.4 °F -0.4 °F 31% 30.27 in 10.0 mi SSW 18.4 mph 21.9 mph N/A   Clear
12:53 PM 26.6 °F 15.2 °F 1.4 °F 34% 30.26 in 10.0 mi SSW 13.8 mph - N/A   Clear
1:12 PM 28.4 °F 17.0 °F -0.4 °F 29% 30.25 in 10.0 mi SSW 15.0 mph 19.6 mph N/A   Clear
1:33 PM 28.4 °F 16.6 °F 1.4 °F 31% 30.24 in 10.0 mi SW 16.1 mph 21.9 mph N/A   Clear
1:53 PM 28.4 °F 17.0 °F 1.4 °F 31% 30.22 in 10.0 mi SSW 15.0 mph 19.6 mph N/A   Clear
2:12 PM 28.4 °F 16.6 °F -0.4 °F 29% 30.21 in 10.0 mi SSW 16.1 mph 23.0 mph N/A   Clear
2:33 PM 28.4 °F 15.4 °F -0.4 °F 29% 30.20 in 10.0 mi SW 19.6 mph - N/A   Clear
2:52 PM 28.4 °F 16.6 °F -0.4 °F 29% 30.19 in 10.0 mi SSW 16.1 mph - N/A   Clear
3:12 PM 30.2 °F 18.1 °F -0.4 °F 27% 30.18 in 10.0 mi SSW 18.4 mph - N/A   Clear
3:33 PM 30.2 °F 19.3 °F -0.4 °F 27% 30.17 in 10.0 mi South 15.0 mph 21.9 mph N/A   Clear
3:52 PM 30.2 °F 18.5 °F 1.4 °F 29% 30.17 in 10.0 mi SSW 17.3 mph - N/A   Clear
4:12 PM 28.4 °F 17.0 °F -0.4 °F 29% 30.15 in 10.0 mi SSW 15.0 mph 23.0 mph N/A   Clear
4:33 PM 28.4 °F 17.5 °F -0.4 °F 29% 30.15 in 10.0 mi South 13.8 mph 21.9 mph N/A   Clear
4:52 PM 28.4 °F 17.0 °F -0.4 °F 29% 30.13 in 10.0 mi South 15.0 mph 20.7 mph N/A   Clear
5:13 PM 26.6 °F 15.7 °F -0.4 °F 31% 30.13 in 10.0 mi South 12.7 mph 17.3 mph N/A   Clear
5:32 PM 26.6 °F 16.2 °F -0.4 °F 31% 30.12 in 10.0 mi South 11.5 mph - N/A   Clear
5:52 PM 24.8 °F 14.6 °F -0.4 °F 34% 30.11 in 10.0 mi South 10.4 mph - N/A   Clear
6:13 PM 24.8 °F 15.3 °F -0.4 °F 34% 30.11 in 10.0 mi South 9.2 mph - N/A   Clear
6:32 PM 23.0 °F 13.1 °F -0.4 °F 36% 30.11 in 10.0 mi South 9.2 mph - N/A   Clear
6:53 PM 23.0 °F 11.1 °F -0.4 °F 36% 30.10 in 10.0 mi South 12.7 mph - N/A   Clear
7:12 PM 21.2 °F 9.5 °F -0.4 °F 39% 30.10 in 10.0 mi South 11.5 mph - N/A   Clear
7:32 PM 21.2 °F 7.8 °F -2.2 °F 36% 30.09 in 10.0 mi South 15.0 mph 18.4 mph N/A   Clear
7:53 PM 21.2 °F 6.4 °F -0.4 °F 39% 30.09 in 10.0 mi South 18.4 mph 23.0 mph N/A   Clear
8:13 PM 21.2 °F 8.3 °F 1.4 °F 42% 30.09 in 10.0 mi South 13.8 mph 18.4 mph N/A   Clear
8:32 PM 19.4 °F 6.6 °F 1.4 °F 46% 30.08 in 10.0 mi South 12.7 mph - N/A   Clear
8:53 PM 19.4 °F 8.6 °F 1.4 °F 46% 30.08 in 10.0 mi South 9.2 mph - N/A   Clear
9:12 PM 17.6 °F 8.2 °F 1.4 °F 49% 30.07 in 10.0 mi South 6.9 mph - N/A   Clear
9:32 PM 17.6 °F 7.3 °F 3.2 °F 53% 30.06 in 10.0 mi South 8.1 mph - N/A   Clear
9:52 PM 17.6 °F 6.4 °F 3.2 °F 53% 30.05 in 10.0 mi South 9.2 mph - N/A   Scattered Clouds
10:13 PM 17.6 °F 8.2 °F 3.2 °F 53% 30.05 in 10.0 mi South 6.9 mph - N/A   Mostly Cloudy
10:32 PM 17.6 °F 10.7 °F 3.2 °F 53% 30.04 in 10.0 mi South 4.6 mph - N/A   Overcast
10:52 PM 17.6 °F 9.3 °F 5.0 °F 58% 30.03 in 10.0 mi South 5.8 mph - N/A   Overcast
11:13 PM 17.6 °F 8.2 °F 6.8 °F 63% 30.02 in 10.0 mi SSE 6.9 mph - N/A   Overcast
11:33 PM 17.6 °F 8.2 °F 6.8 °F 63% 30.01 in 10.0 mi SSE 6.9 mph - N/A   Overcast
11:52 PM 19.4 °F 9.5 °F 6.8 °F 58% 30.00 in 10.0 mi SSE 8.1 mph - N/A   Overcast